Location: Alsip
(41.6689°N, 87.7387°W)
Time: 14:05:42
(UTC+00:00)

Cosmos 2366 rocket - Pass Details

Date: 14 July 2020
Orbit: 954 x 998 km, 82.9° (Epoch: 12 August)

Event Time Altitude Azimuth Distance (km) Brightness Sun altitude
Exits shadow 04:03:44 39° 134° (SE) 1,462 4.4 -21.5°
Maximum altitude 04:05:32 49° 91° (E) 1,268 4.4 -21.7°
Drops below altitude 10° 04:11:35 10° 18° (NNE) 2,761 7.0 -22.2°
Sets 04:14:10 0° 14° (NNE) 3,709 7.8 -22.4°
